Back to catalog

THORAD AGENA D DEB

AliveSSO
NORAD 5958·DEBRIS·🇺🇸 United States

Launched Apr 8, 1970 from Vandenberg Space Force Base

Loading…

Next Passes (next 24 hours)

TLE

FreshSource: Space-Track

Epoch: Sep 14, 2026, 05:52 UTC

1 05958U 70025MP  26257.24474206  .00000366  00000-0  50467-3 0  9992
2 05958  99.4843 161.1561 0049603 242.8802 269.8466 13.64666364787351

Track THORAD AGENA D DEB in real time with AllMySat

Download on the App Store